This demonstration page uses our WeatherBlox Daily Observations layout. Learn more.

Left ArrowRight Arrow

41.86663, -103.66717

Hourly Observations for April 5, 2016

Temp ( °F °C ) Dew Point ( °F °C ) Humidity (%) Winds ( mph kmh ) Pressure ( in mb ) Visibility ( mi km ) Precip ( " mm )
12:00 am 00:00 Mostly Cloudy 64 18 30 -1 28 28 W 12 19 29.80 1009 10 16 N/A
12:53 am 00:53 Mostly Clear 61 16.1 36 2.2 39 39 W 22 35 29.87 1012 10 16 N/A
1:53 am 01:53 Mostly Clear 56 13.3 39 3.9 53 53 W 7 11 29.84 1011 10 16 N/A
2:53 am 02:53 Clear 51 10.6 38 3.3 61 61 VRB 3 6 29.83 1010 10 16 N/A
3:53 am 03:53 Clear 52 11.1 37 2.8 57 57 WNW 10 17 29.82 1010 10 16 N/A
4:53 am 04:53 Clear 54 12.2 35 1.7 49 49 W 14 22 29.82 1010 10 16 N/A
5:53 am 05:53 Clear 54 12.2 34 1.1 47 47 WNW 12 19 29.82 1010 10 16 N/A
6:53 am 06:53 Sunny 53 11.7 33 0.6 47 47 W 13 20 29.82 1010 10 16 N/A
7:53 am 07:53 Sunny 51 10.6 35 1.7 54 54 WNW 12 19 29.86 1011 10 16 N/A
8:53 am 08:53 Sunny 52 11.1 34 1.1 50 50 N 14 22 29.87 1012 10 16 N/A
9:53 am 09:53 Sunny 54 12.2 28 -2.2 37 37 NNW 15 24 29.90 1013 10 16 N/A
10:53 am 10:53 Sunny 55 12.8 25 -3.9 31 31 NNW 18 30 29.91 1013 10 16 N/A
11:53 am 11:53 Sunny 60 15.6 27 -2.8 28 28 WNW 21 33 29.87 1012 10 16 N/A
12:53 pm 12:53 Partly Cloudy 56 13.3 23 -5 28 28 NW 20 31 29.89 1012 10 16 N/A
1:53 pm 13:53 Cloudy 56 13.3 17 -8.3 22 22 NW 21 33 29.89 1012 10 16 N/A
2:53 pm 14:53 Sunny 60 15.6 8 -13.3 12 12 WNW 26 43 29.89 1012 10 16 N/A
3:53 pm 15:53 Sunny 59 15 8 -13.3 13 13 WNW 26 43 29.87 1012 10 16 N/A
4:53 pm 16:53 Sunny 58 14.4 8 -13.3 13 13 WNW 20 31 29.88 1012 10 16 N/A
5:53 pm 17:53 Sunny 57 14 9 -13 14 14 NW 33 54 29.83 1010 10 16 N/A
6:53 pm 18:53 Sunny 52 11.1 20 -6.7 28 28 NNW 29 46 29.94 1014 10 16 N/A
7:53 pm 19:53 Clear 50 10 18 -7.8 28 28 NW 26 43 29.99 1016 10 16 N/A
8:53 pm 20:53 Clear 46 7.8 21 -6.1 37 37 NW 14 22 30.02 1017 10 16 N/A
9:53 pm 21:53 Mostly Cloudy 43 6.1 22 -5.6 43 43 NNW 12 19 30.04 1017 10 16 N/A
10:53 pm 22:53 Mostly Cloudy 40 4.4 23 -5 51 51 WNW 8 13 30.05 1018 10 16 N/A
11:53 pm 23:53 Cloudy 47 8.3 23 -5 39 39 NW 23 37 30.02 1017 10 16 N/A

Powered by AerisWeather